TimeEDT,TemperatureF,Dew PointF,Humidity,Sea Level PressureIn,VisibilityMPH,Wind Direction,Wind SpeedMPH,Gust SpeedMPH,PrecipitationIn,Events,Conditions,WindDirDegrees,DateUTC
12:53 AM,81.0,75.9,85,29.82,10.0,SSE,16.1,-,N/A,,Partly Cloudy,160,2012-10-01 04:53:00
1:53 AM,82.0,75.9,82,29.81,10.0,South,10.4,-,N/A,,Overcast,180,2012-10-01 05:53:00
2:53 AM,82.0,75.9,82,29.79,10.0,SSW,9.2,-,N/A,,Scattered Clouds,200,2012-10-01 06:53:00
3:53 AM,82.0,77.0,85,29.78,10.0,SSW,10.4,16.1,N/A,,Mostly Cloudy,200,2012-10-01 07:53:00
4:53 AM,79.0,75.0,88,29.78,6.0,South,16.1,25.3,0.00,Rain,Rain,170,2012-10-01 08:53:00
5:07 AM,78.8,75.2,89,29.79,5.0,South,15.0,-,0.15,Rain-Thunderstorm,Rain,170,2012-10-01 09:07:00
5:29 AM,77.0,73.4,89,29.78,5.0,South,3.5,18.4,0.24,Rain,Heavy Rain,190,2012-10-01 09:29:00
5:53 AM,80.1,75.0,85,29.78,10.0,SSW,11.5,-,0.26,,Mostly Cloudy,210,2012-10-01 09:53:00
6:53 AM,82.0,75.0,79,29.79,10.0,SSW,12.7,-,N/A,,Partly Cloudy,210,2012-10-01 10:53:00
7:53 AM,82.0,75.0,79,29.81,10.0,South,12.7,-,N/A,,Clear,180,2012-10-01 11:53:00
8:53 AM,82.9,75.0,77,29.82,10.0,South,15.0,-,N/A,,Partly Cloudy,180,2012-10-01 12:53:00
9:53 AM,82.9,75.9,79,29.84,10.0,South,12.7,-,N/A,,Scattered Clouds,180,2012-10-01 13:53:00
10:53 AM,84.0,75.9,76,29.86,10.0,South,13.8,-,N/A,,Mostly Cloudy,180,2012-10-01 14:53:00
11:22 AM,84.2,75.2,74,29.86,10.0,SSW,13.8,-,N/A,,Scattered Clouds,200,2012-10-01 15:22:00
11:53 AM,84.0,75.9,76,29.86,10.0,South,15.0,-,N/A,,Partly Cloudy,180,2012-10-01 15:53:00
12:53 PM,86.0,75.9,72,29.85,10.0,South,13.8,20.7,N/A,,Scattered Clouds,180,2012-10-01 16:53:00
1:32 PM,82.4,75.2,79,29.83,10.0,South,13.8,21.9,0.00,Rain,Light Rain,180,2012-10-01 17:32:00
1:53 PM,84.9,77.0,77,29.82,10.0,South,15.0,-,0.00,,Mostly Cloudy,180,2012-10-01 17:53:00
2:08 PM,84.2,77.0,79,29.82,10.0,South,12.7,-,N/A,,Scattered Clouds,190,2012-10-01 18:08:00
2:53 PM,84.9,77.0,77,29.81,10.0,South,15.0,23.0,N/A,,Partly Cloudy,190,2012-10-01 18:53:00
3:53 PM,82.0,73.9,76,29.80,10.0,SSW,16.1,-,N/A,,Partly Cloudy,200,2012-10-01 19:53:00
4:53 PM,82.4,75.2,79,29.79,10.0,SSW,11.5,-,N/A,,Clear,200,2012-10-01 20:53:00
5:53 PM,81.0,75.0,82,29.81,10.0,WSW,17.3,-,N/A,,Mostly Cloudy,240,2012-10-01 21:53:00
5:56 PM,80.6,73.4,79,29.81,10.0,SW,17.3,-,N/A,,Mostly Cloudy,230,2012-10-01 21:56:00
5:57 PM,80.6,73.4,79,29.81,10.0,SW,17.3,-,N/A,,Scattered Clouds,230,2012-10-01 21:57:00
6:53 PM,81.0,73.0,77,29.81,10.0,SW,10.4,-,N/A,,Scattered Clouds,230,2012-10-01 22:53:00
7:53 PM,78.1,73.0,84,29.81,10.0,SSW,12.7,-,0.00,Rain,Light Rain,210,2012-10-01 23:53:00
8:53 PM,81.0,73.0,77,29.83,10.0,SSW,10.4,-,0.00,,Clear,200,2012-10-02 00:53:00
9:53 PM,82.0,75.0,79,29.86,10.0,SSW,11.5,-,0.00,,Mostly Cloudy,200,2012-10-02 01:53:00
10:45 PM,80.6,75.2,84,29.88,10.0,SW,20.7,31.1,0.01,,Overcast,230,2012-10-02 02:45:00
10:53 PM,78.1,73.9,87,29.87,9.0,WSW,6.9,28.8,0.01,Rain,Light Rain,250,2012-10-02 02:53:00
11:20 PM,78.8,75.2,89,29.88,10.0,SW,12.7,-,0.02,,Mostly Cloudy,230,2012-10-02 03:20:00
11:53 PM,79.0,73.9,84,29.89,10.0,SSW,10.4,-,0.02,Rain,Rain,210,2012-10-02 03:53:00